Covington, KY

6:08 AM EDT on April 26, 2017 (GMT -0400)
Cincinnati-Northern KY International

Weather History for KCVG - November, 2013

Change the Weather History Date:

Sunday, November 3, 2013

  Actual Average Record
Temperature  
Mean Temperature 48 °F 50 °F  
Max Temperature 57 °F 60 °F 81 °F (1946)
Min Temperature 38 °F 40 °F 12 °F (1951)
Degree Days  
Heating Degree Days 17 15  
Month to date heating degree days 41 44  
Since 1 July heating degree days 374 406  
Cooling Degree Days 0 0  
Month to date cooling degree days 0 0  
Year to date cooling degree days 1150 1121  
Moisture  
Dew Point 36 °F    
Average Humidity 75    
Maximum Humidity 100    
Minimum Humidity 50    
Precipitation  
Precipitation 0.00 in 0.11 in 2.26 in (2011)
Month to date precipitation T 0.35  
Year to date precipitation 42.38 36.07  
Snow  
Snow 0.00 in 0.00 in 0.50 in (1966)
Month to date snowfall 0.0 0.0  
Since 1 July snowfall T 0.4  
Since 1 September snowfall T 0.4  
Snow Depth 0.00 in    
Sea Level Pressure  
Sea Level Pressure 30.26 in    
Wind  
Wind Speed 4 mph (NE)    
Max Wind Speed 10 mph    
Max Gust Speed 12 mph    
Visibility 10 miles    
Events      
T = Trace of Precipitation, MM = Missing Value Source: NWS Daily Summary

Daily Weather History Graph

Daily Weather History Graph

Search for Another Location

Airport or City:

Trip Planner

Search our weather history database for the weather conditions in past years. The results will help you decide how hot, cold, wet, or windy it might be!

Date:

Astronomy

Nov. 03, 2013 Rise Set
Actual Time 7:08 AM EST 5:35 PM EST
Civil Twilight 6:40 AM EST 6:03 PM EST
Nautical Twilight 6:09 AM EST 6:34 PM EST
Astronomical Twilight 5:37 AM EST 7:05 PM EST
Moon 7:11 AM EST (11/3) 5:49 PM EST (11/3)
Length of Visible Light 11h 22m
Length of Day
10h 26m
New Moon, 0% of the Moon is Illuminated
Nov 3
New Moon
Nov 10
First Quarter
Nov 17
Full
Nov 25
Last Quarter
Dec 2
New

Hourly Weather History & Observations

Time (EST) Temp. Windchill Dew Point Humidity Pressure Visibility Wind Dir Wind Speed Gust Speed Precip Events Conditions
12:52 AM 39.9 °F - 36.0 °F 86% 30.10 in 10.0 mi Calm Calm - N/A   Mostly Cloudy
1:52 AM 41.0 °F 38.0 °F 37.0 °F 86% 30.12 in 10.0 mi West 4.6 mph - N/A   Overcast
1:52 AM 39.9 °F 37.8 °F 37.0 °F 89% 30.12 in 9.0 mi West 3.5 mph - N/A   Overcast
2:52 AM 39.9 °F 35.8 °F 37.0 °F 89% 30.14 in 10.0 mi NW 5.8 mph - N/A   Mostly Cloudy
3:52 AM 39.9 °F 35.8 °F 37.9 °F 93% 30.17 in 9.0 mi West 5.8 mph - N/A   Overcast
4:52 AM 39.9 °F 36.7 °F 39.0 °F 97% 30.19 in 10.0 mi WNW 4.6 mph - N/A   Overcast
5:52 AM 39.0 °F 36.8 °F 37.9 °F 96% 30.21 in 10.0 mi West 3.5 mph - N/A   Mostly Cloudy
6:52 AM 37.9 °F 35.5 °F 37.0 °F 97% 30.24 in 10.0 mi West 3.5 mph - N/A   Mostly Cloudy
7:52 AM 39.0 °F 36.8 °F 37.9 °F 96% 30.27 in 6.0 mi NW 3.5 mph - N/A   Scattered Clouds
8:52 AM 44.1 °F 39.5 °F 39.9 °F 85% 30.30 in 7.0 mi NNW 8.1 mph - N/A   Partly Cloudy
9:52 AM 46.9 °F - 41.0 °F 80% 30.30 in 10.0 mi NNE 3.5 mph - N/A   Partly Cloudy
10:52 AM 48.9 °F - 39.0 °F 69% 30.32 in 10.0 mi Calm Calm - N/A   Partly Cloudy
11:52 AM 52.0 °F - 37.0 °F 57% 30.33 in 10.0 mi Calm Calm - N/A   Scattered Clouds
12:52 PM 54.0 °F - 35.1 °F 49% 30.30 in 10.0 mi Calm Calm - N/A   Mostly Cloudy
1:52 PM 52.0 °F - 35.1 °F 53% 30.29 in 10.0 mi East 6.9 mph - N/A   Mostly Cloudy
2:52 PM 51.1 °F - 33.1 °F 50% 30.30 in 10.0 mi SE 4.6 mph - N/A   Mostly Cloudy
3:52 PM 50.0 °F - 35.1 °F 57% 30.30 in 10.0 mi ESE 3.5 mph - N/A   Scattered Clouds
4:52 PM 46.9 °F - 35.1 °F 63% 30.30 in 10.0 mi Calm Calm - N/A   Scattered Clouds
5:52 PM 48.0 °F - 34.0 °F 58% 30.30 in 10.0 mi East 4.6 mph - N/A   Partly Cloudy
6:52 PM 44.1 °F 42.5 °F 34.0 °F 68% 30.33 in 10.0 mi ESE 3.5 mph - N/A   Partly Cloudy
7:52 PM 44.1 °F 40.1 °F 34.0 °F 68% 30.32 in 10.0 mi East 6.9 mph - N/A   Clear
8:52 PM 42.1 °F 39.2 °F 35.1 °F 76% 30.32 in 10.0 mi ESE 4.6 mph - N/A   Clear
9:52 PM 43.0 °F 41.3 °F 34.0 °F 71% 30.35 in 10.0 mi ESE 3.5 mph - N/A   Clear
10:52 PM 42.1 °F 37.1 °F 35.1 °F 76% 30.35 in 10.0 mi ESE 8.1 mph - N/A   Clear